Change the Weather History Date:

Saturday, December 22, 2012

  Actual Average (KVPZ) Record (KVPZ)
Temperature  
Mean Temperature 23 °F 26 °F  
Max Temperature 28 °F 33 °F 53 °F (2006)
Min Temperature 18 °F 19 °F -9 °F (2000)
Degree Days  
Heating Degree Days 42 39  
Month to date heating degree days 785  
Since 1 July heating degree days 2043  
Cooling Degree Days 0 0  
Month to date cooling degree days 0  
Year to date cooling degree days 713  
Moisture  
Dew Point 19 °F    
Average Humidity 86    
Maximum Humidity 94    
Minimum Humidity 72    
Precipitation  
Precipitation 0.00 in 0.06 in 0.70 in (2006)
Month to date precipitation 1.60  
Year to date precipitation 36.93  
Sea Level Pressure  
Sea Level Pressure 30.11 in    
Wind  
Wind Speed 9 mph (SW)    
Max Wind Speed 15 mph    
Max Gust Speed 16 mph    
Visibility 10 miles    
Events      
T = Trace of Precipitation, MM = Missing Value Source: NWS Daily Summary

Daily Weather History Graph

Daily Weather History Graph

Search for Another Location

Airport or City:

Trip Planner

Search our weather history database for the weather conditions in past years. The results will help you decide how hot, cold, wet, or windy it might be!

Date:

Astronomy

Dec. 22, 2012 Rise Set
Actual Time 7:09 AM CST 4:21 PM CST
Civil Twilight 6:38 AM CST 4:52 PM CST
Nautical Twilight 6:03 AM CST 5:27 PM CST
Astronomical Twilight 5:30 AM CST 6:01 PM CST
Moon 12:40 PM CST (12/22) 1:52 AM CST (12/22)
Length of Visible Light 10h 14m
Length of Day
9h 11m
Waxing Gibbous, 74% of the Moon is Illuminated
Dec 22
Waxing Gibbous
Dec 28
Full
Jan 4
Last Quarter
Jan 11
New
Jan 18
First Quarter

Hourly Weather History & Observations

Time (CST) Temp. Windchill Dew Point Humidity Pressure Visibility Wind Dir Wind Speed Gust Speed Precip Events Conditions
12:15 AM 24.8 °F 14.0 °F 21.4 °F 87% 30.11 in 10.0 mi West 11.5 mph - N/A   Overcast
12:35 AM 24.8 °F 15.3 °F 21.4 °F 87% 30.12 in 10.0 mi West 9.2 mph 16.1 mph N/A   Overcast
12:55 AM 24.8 °F 14.6 °F 21.7 °F 88% 30.13 in 10.0 mi West 10.4 mph - N/A   Overcast
1:15 AM 24.6 °F 13.8 °F 21.6 °F 88% 30.14 in 10.0 mi West 11.5 mph - N/A   Overcast
1:35 AM 24.3 °F 13.3 °F 21.2 °F 88% 30.14 in 10.0 mi West 11.5 mph - N/A   Overcast
1:55 AM 23.7 °F 13.3 °F 20.7 °F 88% 30.15 in 10.0 mi West 10.4 mph - N/A   Overcast
2:15 AM 23.9 °F 13.5 °F 20.5 °F 87% 30.15 in 10.0 mi West 10.4 mph - N/A   Overcast
2:35 AM 23.5 °F 11.8 °F 20.5 °F 88% 30.15 in 10.0 mi West 12.7 mph - N/A   Overcast
3:15 AM 22.8 °F 11.5 °F 19.4 °F 87% 30.14 in 10.0 mi West 11.5 mph - N/A   Overcast
3:35 AM 22.5 °F 9.9 °F 19.2 °F 87% 30.15 in 10.0 mi West 13.8 mph - N/A   Overcast
3:55 AM 22.1 °F 10.0 °F 19.0 °F 88% 30.15 in 10.0 mi West 12.7 mph - N/A   Overcast
4:15 AM 22.1 °F 10.0 °F 18.9 °F 87% 30.15 in 10.0 mi West 12.7 mph - N/A   Overcast
4:35 AM 21.7 °F 9.6 °F 18.5 °F 87% 30.15 in 10.0 mi West 12.7 mph - N/A   Overcast
4:55 AM 21.4 °F 9.7 °F 18.3 °F 88% 30.14 in 10.0 mi West 11.5 mph - N/A   Overcast
5:15 AM 21.0 °F 9.3 °F 18.3 °F 89% 30.15 in 10.0 mi WSW 11.5 mph - N/A   Overcast
5:35 AM 20.8 °F 7.3 °F 18.3 °F 90% 30.16 in 10.0 mi West 15.0 mph - N/A   Overcast
6:15 AM 20.1 °F 7.5 °F 17.4 °F 89% 30.17 in 10.0 mi West 12.7 mph - N/A   Overcast
6:35 AM 20.1 °F 6.4 °F 17.4 °F 89% 30.18 in 10.0 mi WSW 15.0 mph - N/A   Overcast
6:55 AM 19.9 °F 7.3 °F 17.4 °F 90% 30.19 in 10.0 mi West 12.7 mph - N/A   Overcast
7:15 AM 19.4 °F 6.0 °F 16.7 °F 89% 30.19 in 10.0 mi West 13.8 mph - N/A   Overcast
7:35 AM 19.0 °F 5.6 °F 16.2 °F 89% 30.20 in 10.0 mi West 13.8 mph - N/A   Overcast
7:55 AM 18.9 °F 7.2 °F 15.8 °F 88% 30.20 in 10.0 mi West 10.4 mph - N/A   Overcast
8:15 AM 18.9 °F 8.0 °F 15.8 °F 88% 30.21 in 10.0 mi WSW 9.2 mph - N/A   Overcast
8:35 AM 18.9 °F 7.2 °F 15.6 °F 87% 30.20 in 10.0 mi WSW 10.4 mph - N/A   Overcast
8:55 AM 19.0 °F 8.2 °F 15.6 °F 87% 30.20 in 10.0 mi SW 9.2 mph - N/A   Overcast
9:15 AM 19.2 °F 8.4 °F 15.6 °F 86% 30.20 in 10.0 mi SW 9.2 mph - N/A   Overcast
9:35 AM 19.2 °F 11.3 °F 15.8 °F 87% 30.21 in 10.0 mi SW 5.8 mph - N/A   Overcast
9:55 AM 19.8 °F 11.9 °F 16.2 °F 86% 30.21 in 10.0 mi SW 5.8 mph - N/A   Overcast
10:15 AM 20.7 °F 11.9 °F 16.5 °F 84% 30.21 in 10.0 mi SW 6.9 mph - N/A   Overcast
10:35 AM 21.2 °F 12.6 °F 16.7 °F 83% 30.20 in 10.0 mi SW 6.9 mph - N/A   Scattered Clouds
10:55 AM 21.4 °F 13.8 °F 16.7 °F 82% 30.19 in 10.0 mi SW 5.8 mph - N/A   Clear
11:15 AM 22.3 °F 16.1 °F 17.2 °F 81% 30.18 in 10.0 mi SW 4.6 mph - N/A   Clear
11:35 AM 23.2 °F 15.0 °F 17.4 °F 79% 30.18 in 10.0 mi SW 6.9 mph - N/A   Clear
11:55 AM 23.9 °F 15.8 °F 18.0 °F 78% 30.17 in 10.0 mi WSW 6.9 mph - N/A   Clear
12:15 PM 24.6 °F 17.7 °F 18.5 °F 78% 30.15 in 10.0 mi WSW 5.8 mph - N/A   Clear
12:35 PM 25.5 °F 18.7 °F 18.9 °F 76% 30.14 in 10.0 mi WSW 5.8 mph - N/A   Clear
12:55 PM 26.1 °F 18.4 °F 19.6 °F 76% 30.13 in 10.0 mi SW 6.9 mph - N/A   Clear
1:15 PM 27.1 °F 23.2 °F 19.9 °F 74% 30.12 in 10.0 mi WSW 3.5 mph - N/A   Clear
1:55 PM 28.2 °F 20.2 °F 20.8 °F 74% 30.13 in 10.0 mi WSW 8.1 mph - N/A   Clear
2:15 PM 28.4 °F 21.2 °F 21.0 °F 74% 30.11 in 10.0 mi SW 6.9 mph - N/A   Clear
2:35 PM 28.8 °F 23.7 °F 20.8 °F 72% 30.10 in 10.0 mi SW 4.6 mph - N/A   Clear
2:55 PM 28.8 °F 22.6 °F 20.8 °F 72% 30.10 in 10.0 mi SSW 5.8 mph - N/A   Clear
3:15 PM 28.4 °F 22.2 °F 21.6 °F 76% 30.09 in 10.0 mi SSW 5.8 mph - N/A   Clear
3:35 PM 28.2 °F 22.0 °F 21.7 °F 77% 30.09 in 10.0 mi SSW 5.8 mph - N/A   Clear
3:55 PM 27.1 °F 20.7 °F 22.1 °F 81% 30.08 in 10.0 mi SSW 5.8 mph - N/A   Clear
4:15 PM 26.1 °F 19.4 °F 21.6 °F 83% 30.08 in 10.0 mi SSW 5.8 mph - N/A   Clear
4:35 PM 24.8 °F 17.9 °F 20.7 °F 84% 30.08 in 10.0 mi SSW 5.8 mph - N/A   Clear
4:55 PM 24.6 °F 18.8 °F 20.8 °F 86% 30.08 in 10.0 mi SSW 4.6 mph - N/A   Clear
5:15 PM 23.9 °F 18.0 °F 20.3 °F 86% 30.08 in 10.0 mi SSW 4.6 mph - N/A   Clear
5:35 PM 23.7 °F 19.3 °F 20.5 °F 87% 30.08 in 10.0 mi South 3.5 mph - N/A   Clear
5:55 PM 23.7 °F - 20.5 °F 87% 30.07 in 10.0 mi Calm Calm - N/A   Clear
6:15 PM 22.6 °F - 20.1 °F 90% 30.08 in 10.0 mi Calm Calm - N/A   Clear
6:35 PM 22.6 °F 16.5 °F 20.5 °F 91% 30.06 in 10.0 mi SE 4.6 mph - N/A   Clear
6:55 PM 21.2 °F 12.6 °F 19.0 °F 91% 30.04 in 10.0 mi SSE 6.9 mph - N/A   Clear
7:15 PM 19.2 °F 10.2 °F 17.8 °F 94% 30.03 in 10.0 mi SSE 6.9 mph - N/A   Clear
7:35 PM 20.7 °F 13.0 °F 19.0 °F 93% 30.03 in 10.0 mi SSE 5.8 mph - N/A   Clear
7:55 PM 21.2 °F 12.6 °F 19.4 °F 93% 30.02 in 10.0 mi South 6.9 mph - N/A   Clear
8:15 PM 22.6 °F 14.3 °F 20.7 °F 92% 30.02 in 10.0 mi SSE 6.9 mph - N/A   Clear
8:35 PM 22.8 °F 12.9 °F 20.7 °F 91% 30.01 in 10.0 mi South 9.2 mph - N/A   Clear
8:55 PM 22.8 °F 15.5 °F 20.3 °F 90% 30.02 in 10.0 mi South 5.8 mph - N/A   Clear
9:15 PM 22.5 °F 15.1 °F 19.9 °F 90% 30.02 in 10.0 mi South 5.8 mph - N/A   Clear
9:35 PM 22.1 °F 13.7 °F 19.2 °F 89% 30.02 in 10.0 mi South 6.9 mph - N/A   Clear
9:55 PM 21.6 °F 13.0 °F 19.0 °F 90% 30.01 in 10.0 mi South 6.9 mph - N/A   Clear
10:15 PM 21.7 °F 13.2 °F 18.7 °F 88% 30.00 in 10.0 mi SSE 6.9 mph - N/A   Clear
10:35 PM 21.9 °F 17.2 °F 18.7 °F 87% 30.00 in 10.0 mi SE 3.5 mph - N/A   Clear
10:55 PM 21.7 °F 17.0 °F 18.7 °F 88% 29.99 in 10.0 mi SE 3.5 mph - N/A   Clear
11:15 PM 20.7 °F 13.0 °F 18.1 °F 90% 29.97 in 10.0 mi SSE 5.8 mph - N/A   Clear
11:35 PM 20.5 °F 14.0 °F 18.1 °F 91% 29.96 in 10.0 mi SE 4.6 mph - N/A   Clear
11:55 PM 20.5 °F 15.6 °F 18.0 °F 90% 29.95 in 10.0 mi SE 3.5 mph - N/A   Clear